Theta_e
308 308 308 307 306 305 305 305 304 305 305 305 304 305 307 308 309 309 309 308 309 309 310 311 311 310 311 311 311 311 309 307 304 302 301 301 301 301 300 300 300 300 301 301 301 301 301 301 301 302 302 303 305 307 309 311 313 314 314 314 315 315 316 317 318 318 318 319 319 317 316 317 317 317
306 306 307 307 307 306 305 304 303 303 302 302 302 303 305 307 308 309 309 309 308 308 308 309 309 309 309 308 307 305 303 301 300 300 300 300 300 300 300 299 300 300 300 300 300 300 300 300 301 301 302 302 303 304 306 309 311 313 313 314 314 315 316 316 317 318 319 319 319 318 317 317 317 317
304 304 304 304 305 305 305 304 303 302 301 301 301 300 301 303 304 306 307 307 306 305 305 305 305 304 303 302 301 301 300 300 300 300 300 300 299 299 299 299 299 299 299 299 299 299 299 300 300 301 301 302 303 304 306 309 311 312 313 314 314 314 315 316 317 318 318 318 319 318 318 317 317 316
302 301 301 302 302 303 303 303 303 303 302 302 301 300 300 300 300 301 301 302 301 301 301 300 300 300 299 299 299 299 299 299 299 299 298 298 298 298 298 298 298 298 299 298 298 299 299 299 299 300 300 301 302 303 305 308 311 312 312 313 313 314 314 315 315 316 316 317 318 318 317 317 316 315
300 300 300 300 300 300 300 301 301 301 302 302 302 301 301 301 300 300 299 299 299 299 298 298 298 297 297 297 297 297 297 297 297 297 297 297 297 297 297 297 297 297 297 297 298 298 298 298 299 299 300 300 301 303 304 306 308 309 311 311 312 312 313 314 315 315 316 316 317 317 317 317 315 314
299 299 299 299 298 298 298 299 299 299 299 299 299 299 299 299 299 298 298 297 297 296 296 295 295 295 294 294 294 294 294 294 294 295 295 295 295 295 295 295 295 296 296 296 296 297 297 298 298 298 299 299 300 302 303 304 305 306 308 309 310 311 312 313 314 315 316 316 317 317 317 316 314 312
298 298 298 298 297 297 297 297 296 296 296 296 296 296 296 295 295 295 294 294 294 293 293 293 292 292 292 292 292 292 292 292 293 293 293 293 294 294 294 294 294 294 294 295 295 295 296 296 297 297 297 298 299 300 300 302 303 304 306 307 308 309 311 312 313 315 316 317 317 317 316 315 313 311
295 295 295 295 295 295 295 294 293 293 293 293 293 293 292 292 292 292 292 292 291 291 291 291 291 291 291 291 291 291 291 291 291 292 292 292 292 292 292 292 292 293 293 293 293 293 294 295 295 295 296 297 298 298 299 299 300 302 304 305 306 307 309 310 312 313 315 316 316 316 315 314 312 310
293 292 292 292 292 292 291 291 291 291 291 291 291 291 291 290 290 290 290 290 290 290 290 290 290 290 290 290 290 290 290 291 291 291 291 291 291 292 292 292 292 292 292 292 292 292 293 293 293 294 294 295 296 297 298 299 299 300 302 304 305 306 307 308 310 312 313 314 315 315 315 314 311 309
290 290 290 290 290 290 290 290 290 290 290 290 290 290 290 290 290 290 290 290 290 290 290 290 290 290 290 289 289 289 289 289 289 290 290 291 291 291 291 292 292 291 291 291 291 292 292 292 292 293 293 294 294 295 296 298 299 299 300 302 304 305 306 307 309 310 311 313 314 314 314 313 311 309
289 289 289 289 289 289 289 289 289 289 289 289 290 289 289 289 289 289 289 289 289 289 289 289 289 288 288 288 288 288 288 288 288 288 289 290 290 290 290 290 291 291 291 291 291 291 291 291 292 292 292 293 293 295 296 297 298 299 299 300 302 304 305 307 308 310 311 313 314 314 313 312 310 308
289 289 289 289 289 289 289 288 288 288 288 288 288 288 288 288 288 288 288 288 288 288 288 288 288 287 287 287 287 287 287 288 287 287 287 288 289 289 289 290 290 290 290 290 290 291 291 291 292 292 292 293 293 294 295 296 297 298 298 299 301 303 305 306 307 308 310 312 313 313 312 311 309 307
288 288 288 288 288 288 288 288 288 287 287 287 287 287 287 287 287 287 287 287 287 287 287 287 287 287 287 287 286 287 287 286 286 287 287 287 288 288 289 290 289 289 289 289 290 290 291 291 291 292 292 292 293 293 294 295 296 297 298 298 300 302 304 305 305 306 308 311 312 313 312 310 308 306
288 288 288 287 287 287 287 287 287 287 286 286 286 286 286 286 286 286 286 286 286 286 286 286 286 286 286 286 286 286 286 286 286 286 286 287 287 287 288 289 289 288 288 288 289 290 290 290 291 291 291 291 292 293 294 295 296 297 297 298 299 301 302 303 305 306 307 310 312 312 312 310 308 306
287 287 287 287 287 286 286 286 286 286 286 286 286 286 286 286 286 286 286 286 286 286 286 286 286 286 286 286 285 285 285 285 285 286 286 286 286 286 287 288 289 288 288 287 288 289 290 290 290 290 290 291 292 292 293 294 295 296 297 298 299 301 302 303 305 307 308 310 311 312 311 309 307 306
286 286 286 286 286 286 286 286 285 285 285 285 285 285 285 285 285 285 286 286 286 286 286 285 285 285 285 285 285 285 285 285 285 285 285 285 285 285 285 286 287 288 287 287 287 288 289 289 288 289 289 289 290 291 292 293 294 295 296 298 299 301 302 303 305 307 308 309 310 310 310 308 306 305
286 286 286 286 286 286 285 285 285 285 285 285 285 285 285 285 285 285 285 285 285 285 285 285 285 285 284 285 285 285 284 285 285 285 285 285 285 285 285 286 287 287 287 287 286 286 288 288 287 287 288 288 288 289 290 291 293 294 296 297 298 299 300 302 304 305 307 308 308 307 307 306 305 304
285 285 285 285 285 285 285 285 285 285 285 285 285 285 285 285 285 285 285 285 285 284 284 284 284 284 284 284 285 285 284 284 284 284 285 285 285 285 285 286 286 286 286 286 286 286 287 287 286 287 287 288 288 288 289 290 292 294 295 296 296 297 298 300 302 304 305 306 307 307 306 305 305 305
285 285 285 285 285 285 285 285 285 285 285 285 285 285 285 285 285 285 285 284 284 284 284 284 284 284 284 284 284 284 284 284 284 284 284 285 285 285 286 285 285 286 286 285 286 287 287 286 286 286 287 287 288 288 288 289 291 293 295 296 296 296 296 298 300 302 304 305 306 307 306 306 305 305
285 285 285 285 285 285 285 285 285 285 285 285 285 285 285 285 285 284 284 284 284 284 284 284 284 284 284 284 284 284 284 284 284 284 285 285 285 285 285 285 285 285 285 284 286 287 287 285 286 287 287 287 287 288 288 288 289 291 293 295 295 296 296 296 298 301 303 303 304 305 306 306 305 305
285 285 285 285 285 285 285 285 285 285 285 285 285 285 285 285 285 284 284 284 284 284 284 284 284 284 284 284 284 284 284 284 284 284 284 284 285 285 285 284 284 284 284 285 286 286 286 285 286 286 286 286 287 287 287 287 288 289 290 293 294 295 296 296 297 299 301 302 303 303 305 306 306 305
284 284 284 284 284 284 284 284 285 285 285 285 285 285 285 284 284 284 284 284 284 284 284 284 284 284 284 284 284 284 284 284 284 284 283 283 283 283 283 283 283 284 285 285 285 285 285 285 285 285 286 286 286 287 287 286 287 288 289 290 292 294 295 296 296 297 299 301 301 302 303 304 305 306
284 284 284 284 284 284 284 284 284 284 284 284 284 284 284 284 284 284 284 284 284 285 285 284 284 284 284 284 284 284 284 284 284 283 283 283 283 283 283 283 283 284 284 284 285 286 285 284 284 285 286 287 287 286 287 286 286 287 288 289 291 292 294 295 296 296 297 299 300 301 301 302 303 305
284 284 284 284 284 284 284 284 284 284 284 284 284 283 284 283 284 284 284 284 284 284 284 284 284 284 284 284 284 284 284 284 284 284 283 283 283 283 283 283 283 283 284 284 284 285 285 284 284 285 286 287 287 286 287 287 286 286 287 289 290 291 293 294 295 296 296 298 299 300 301 301 302 304
284 283 284 284 284 284 284 283 284 283 283 283 283 283 283 283 283 283 283 283 283 283 284 284 284 284 284 284 284 284 284 284 284 284 283 283 283 283 283 283 283 284 284 284 283 283 284 284 284 285 285 286 287 287 287 287 286 286 286 288 290 292 293 294 295 295 296 297 299 300 300 301 302 303
284 283 283 283 283 283 283 283 283 283 283 283 283 283 283 283 283 283 283 283 283 283 283 283 283 283 283 283 283 283 283 284 283 283 283 283 283 283 283 283 283 283 284 284 283 283 283 284 285 285 286 286 287 287 287 286 286 286 286 286 288 291 293 294 295 295 296 297 298 299 300 300 301 301
283 283 283 283 283 283 283 283 282 282 282 282 282 282 282 282 282 282 282 282 283 283 283 283 283 283 283 283 283 283 283 283 283 283 283 283 283 283 283 283 283 283 284 284 283 283 284 284 285 285 286 286 286 285 285 285 285 286 286 286 287 289 292 293 294 295 296 296 298 299 299 300 300 301
283 283 283 283 283 282 282 282 282 282 282 282 282 282 282 282 282 282 282 282 282 282 282 282 282 282 282 282 282 282 283 283 283 283 283 283 283 283 283 283 283 283 284 284 284 284 283 284 284 284 284 284 284 284 284 284 284 285 286 286 286 288 291 292 293 294 296 297 298 300 300 300 301 301
282 282 282 282 282 282 282 282 282 282 282 282 282 282 282 282 282 282 282 282 282 282 282 282 282 282 282 282 282 282 282 282 282 282 283 283 283 283 283 283 283 283 283 284 284 284 283 283 283 283 284 283 283 283 284 284 284 285 286 287 287 287 290 292 293 294 295 296 298 299 300 300 300 301
282 282 282 282 282 282 282 282 282 282 282 282 282 282 282 282 282 282 282 282 282 282 282 282 282 282 282 282 282 282 282 282 282 282 282 282 283 283 283 283 283 283 283 284 284 284 284 284 284 284 284 284 284 284 284 284 284 285 286 287 287 288 290 292 293 294 295 296 297 299 300 300 301 301
282 282 282 282 282 282 282 282 282 282 282 282 282 281 281 281 281 281 281 281 281 281 281 281 281 281 281 281 282 282 282 282 282 282 282 282 282 282 283 283 283 283 283 283 284 284 284 284 284 284 284 284 284 284 284 284 285 285 286 287 288 289 290 292 293 294 295 296 298 299 300 300 301 301
282 282 282 282 282 282 282 282 282 282 281 281 281 281 281 281 281 281 281 281 280 280 280 281 281 281 281 281 281 281 282 282 282 282 282 282 282 282 282 282 283 283 283 283 283 284 284 284 284 284 284 284 284 284 284 284 285 285 286 287 288 289 290 292 293 294 295 296 297 299 300 300 301 301
282 282 282 282 282 282 282 281 281 281 281 281 281 281 281 280 280 280 280 280 280 280 280 280 280 280 281 281 281 281 281 281 281 281 281 281 281 282 282 282 282 283 283 283 284 284 284 284 284 284 284 284 284 284 284 284 285 285 286 287 288 289 290 291 293 294 295 295 296 298 300 301 301 301
281 281 281 281 281 281 281 281 281 281 281 281 281 280 280 280 280 280 280 280 279 279 279 279 280 280 280 280 280 281 281 281 281 281 280 280 280 281 281 282 282 282 283 283 283 283 284 284 284 284 285 285 285 285 284 283 284 285 285 286 287 288 289 291 292 293 294 295 295 297 299 300 301 301
281 281 281 281 281 281 281 280 280 280 280 280 280 280 280 279 279 279 279 279 279 279 279 279 279 279 279 279 280 280 280 280 281 280 280 280 280 280 280 281 281 282 282 283 283 283 283 283 283 283 284 284 284 285 285 284 283 283 284 284 285 286 287 289 291 292 293 294 295 295 297 299 300 301
280 280 280 280 280 280 280 280 279 279 279 279 279 279 279 279 279 278 278 278 278 278 278 278 278 278 278 278 279 279 279 279 280 280 279 279 279 279 279 279 280 281 281 282 282 282 282 282 281 280 280 280 279 281 284 285 284 282 282 282 284 285 286 288 289 290 291 293 294 295 295 297 299 300
279 279 279 279 279 279 279 279 278 278 278 278 278 278 278 278 278 277 277 277 277 277 277 277 277 277 277 277 277 278 278 278 278 279 278 278 278 278 278 279 279 280 280 281 281 281 281 281 280 278 276 276 275 276 280 284 285 284 283 282 283 286 287 287 288 290 291 292 293 294 295 296 297 298
278 278 278 278 278 278 278 277 277 277 277 277 277 277 277 277 277 276 276 276 276 276 276 276 276 276 276 276 276 277 277 277 277 277 277 277 277 277 277 278 278 279 279 280 281 281 280 280 279 277 274 273 273 274 276 279 283 285 285 284 283 285 287 287 288 289 291 291 292 293 294 295 296 297
277 277 277 277 277 277 277 276 276 276 276 276 276 276 276 276 276 276 276 275 275 275 275 275 275 275 275 275 275 276 276 276 276 276 276 276 276 276 276 277 277 278 279 280 280 281 280 279 278 276 274 273 273 273 272 274 279 284 286 286 285 285 286 287 288 289 290 292 292 293 293 294 296 296
276 276 276 276 276 276 275 275 275 275 275 275 275 275 275 275 275 275 275 275 275 275 274 274 274 274 274 274 274 275 275 275 275 275 276 275 275 275 275 276 276 276 277 279 280 280 280 279 277 276 275 275 275 275 273 274 278 282 285 286 286 284 285 286 287 287 290 291 292 293 293 294 295 296
275 275 275 275 275 275 274 274 274 274 274 274 274 274 274 274 274 274 274 273 273 274 274 274 274 274 274 274 274 274 274 274 274 274 274 274 274 274 274 275 275 275 275 277 278 279 279 279 277 276 276 277 276 275 274 274 277 281 284 286 287 285 285 286 287 287 289 291 292 293 294 294 295 295
274 274 274 274 274 274 274 274 273 273 273 273 273 273 273 273 273 273 273 272 272 272 273 273 273 273 273 273 273 273 273 273 274 273 273 273 274 274 274 274 274 274 273 275 277 278 279 278 277 276 277 278 275 273 272 273 276 280 283 285 287 287 286 287 288 288 289 291 292 293 294 294 294 294
273 273 273 273 273 273 273 273 273 273 272 272 272 272 272 272 272 272 272 272 272 272 272 272 272 272 272 272 272 272 272 272 272 272 273 273 273 273 274 273 273 273 273 274 276 278 278 278 277 276 277 278 275 272 272 274 275 277 281 283 285 286 287 287 289 290 290 292 293 293 294 294 294 295
273 273 272 272 272 272 272 272 272 271 271 271 271 271 271 271 271 271 270 271 271 270 271 271 271 271 271 271 271 271 271 271 271 271 272 272 272 272 273 273 273 273 273 273 275 277 277 277 276 275 277 278 275 272 272 274 274 276 279 282 283 285 287 288 289 290 292 293 293 294 294 294 294 294
272 272 271 271 271 271 270 270 270 270 270 270 270 270 270 270 270 270 270 270 270 270 270 270 270 270 270 270 270 270 270 270 271 271 271 272 272 271 272 272 272 273 273 272 273 275 276 276 276 276 277 277 275 273 273 273 273 275 278 281 282 283 285 287 288 289 291 292 293 293 294 294 294 294
Wind_Speed
16 17 17 15 12 12 12 11 11 11 13 15 15 14 12 11 12 13 15 15 12 11 11 11 13 15 15 17 18 20 22 23 23 24 24 24 25 25 26 27 28 29 29 28 28 28 27 27 28 29 30 31 33 35 36 37 37 38 38 38 36 35 36 36 37 38 37 37 37 37 37 37 38 41
13 14 15 15 15 15 14 12 10 9 10 11 12 12 11 12 11 11 12 14 13 13 13 13 16 18 18 19 21 22 23 23 23 23 24 24 25 26 27 28 28 29 29 29 28 28 28 28 28 28 29 30 31 33 34 35 36 37 38 38 38 37 36 36 36 36 37 37 38 37 37 38 40 43
11 10 10 11 13 15 15 14 12 9 8 9 9 10 10 11 13 13 14 15 14 15 17 17 18 20 21 21 21 23 23 23 23 24 25 26 27 28 29 29 29 29 29 29 29 29 29 28 27 27 28 30 31 32 33 33 34 35 36 36 37 36 36 36 36 36 37 37 37 37 37 39 41 42
10 10 10 10 10 12 13 14 14 13 13 12 11 11 11 12 14 14 15 17 18 18 19 21 21 21 22 22 22 23 24 24 24 25 26 27 28 29 29 30 30 30 30 30 29 29 28 27 27 27 28 29 30 32 33 33 33 33 34 34 35 35 35 35 36 36 37 37 37 37 38 40 41 40
10 9 9 9 10 10 10 11 12 12 14 15 15 15 16 17 18 18 18 20 22 21 19 21 22 22 23 23 22 24 25 26 26 26 26 27 28 29 30 31 31 31 30 30 29 29 29 28 27 26 26 27 29 30 32 33 33 33 34 33 34 34 34 34 35 35 35 35 35 36 37 39 39 38
11 11 11 10 10 11 11 11 11 12 13 14 15 16 17 18 18 19 19 19 21 22 20 20 21 20 21 22 21 22 24 25 26 26 26 27 28 29 30 31 31 30 30 30 30 30 30 29 28 27 26 26 27 28 30 31 32 33 33 33 33 33 33 34 34 34 33 33 33 33 35 36 36 37
12 13 13 13 13 13 13 12 11 12 12 12 13 13 14 14 14 14 15 15 16 18 17 16 17 18 18 18 19 19 21 23 23 24 25 26 27 27 28 29 30 29 30 30 30 30 30 29 29 29 29 27 26 27 29 30 31 32 32 33 33 33 33 33 33 33 32 31 30 30 32 33 33 35
12 12 12 13 13 12 11 11 10 9 9 9 8 9 8 8 8 8 9 10 11 12 13 13 14 16 16 16 17 18 20 20 21 22 23 24 25 25 26 27 28 28 28 29 29 29 29 29 30 31 31 30 29 29 30 30 30 30 30 30 32 33 33 32 31 31 31 30 30 31 31 31 32 34
9 9 9 9 9 8 7 7 6 5 5 4 3 3 3 2 3 4 5 7 8 10 12 12 13 14 15 16 16 18 20 21 21 21 21 22 23 25 25 25 26 27 28 28 28 29 29 30 31 32 32 31 31 31 31 30 29 28 28 28 29 30 31 31 30 30 31 32 32 32 32 31 31 32
8 7 7 7 7 6 6 6 5 4 4 3 2 2 2 3 4 5 6 7 8 10 11 13 13 14 15 16 16 17 19 21 23 23 23 22 24 27 28 28 28 28 29 29 29 29 30 31 32 32 31 31 31 31 31 29 28 28 27 26 26 27 28 28 29 29 30 30 31 32 30 30 30 30
9 9 9 9 9 8 8 7 7 6 6 5 4 5 5 5 5 6 6 7 8 10 11 12 13 14 15 16 16 17 18 19 21 24 27 28 28 29 30 31 31 31 31 31 31 30 31 32 32 32 31 30 30 30 30 28 28 29 28 26 25 26 26 26 27 28 28 28 29 29 28 28 28 27
11 11 11 10 10 10 9 8 8 7 7 7 6 6 7 6 6 6 7 8 8 9 10 11 12 13 14 15 17 18 20 22 23 25 28 31 32 32 31 31 32 33 34 35 35 34 33 34 33 32 31 29 28 30 30 29 29 29 29 27 26 25 25 26 27 27 27 27 27 27 27 28 27 25
11 11 10 10 9 9 9 9 8 8 7 7 7 7 7 7 8 8 8 9 10 10 11 12 14 15 16 18 20 22 23 25 27 28 29 31 33 34 34 32 31 33 37 38 38 36 35 35 35 33 32 31 30 32 32 31 31 31 30 29 27 26 26 27 27 28 28 27 26 25 26 26 25 23
10 10 9 9 9 8 8 8 7 7 7 7 7 8 8 9 9 10 10 11 12 13 14 16 18 19 20 22 23 25 25 26 28 29 31 32 33 35 37 36 32 32 37 40 39 37 35 36 37 36 35 35 34 34 34 33 32 32 32 31 28 26 26 27 27 27 27 27 26 25 25 25 24 22
9 8 8 8 7 8 8 7 7 7 7 7 8 8 9 9 10 11 12 13 14 15 17 18 20 22 23 23 24 25 26 26 28 29 30 32 33 34 37 38 36 34 37 41 42 40 36 36 39 39 38 38 37 36 35 34 33 33 32 30 27 25 24 25 26 26 26 27 26 25 25 25 23 22
8 7 7 6 6 6 7 6 6 6 6 7 7 8 9 10 11 12 14 15 16 17 18 19 20 21 23 23 23 24 26 27 27 28 29 29 31 32 33 36 37 36 38 41 44 43 39 38 40 41 40 40 40 40 39 37 35 34 32 29 26 24 23 24 25 26 26 26 25 25 25 24 22 21
6 5 4 4 4 5 4 4 4 4 5 6 7 8 9 10 11 12 14 15 16 17 18 19 19 20 22 23 23 23 25 26 27 28 29 29 30 31 32 33 36 37 38 40 43 43 40 39 42 44 43 42 42 41 40 37 35 34 32 29 27 26 25 25 24 25 26 26 25 24 24 23 21 19
4 3 2 2 2 3 3 3 4 5 6 7 9 10 10 11 12 13 14 15 15 16 17 19 19 20 21 22 23 23 23 25 27 27 29 29 30 31 32 33 36 37 37 38 40 42 41 41 43 45 44 44 44 42 40 38 35 34 32 31 31 31 30 28 26 24 25 25 25 25 24 23 21 19
2 1 1 2 3 3 4 6 7 8 9 10 11 12 12 13 14 14 15 15 16 17 18 20 21 21 21 22 23 24 24 24 25 26 27 29 30 32 34 35 36 36 36 36 36 38 41 43 44 46 46 45 46 44 41 38 36 34 34 35 35 34 32 31 28 25 24 25 26 26 25 23 22 20
1 1 2 4 5 6 7 9 10 11 12 13 14 14 14 14 15 16 16 16 17 18 19 21 22 22 23 23 23 23 24 24 25 26 27 29 29 31 34 36 37 37 37 36 32 34 41 43 44 47 48 47 48 46 42 39 38 37 37 37 37 35 33 31 29 26 24 24 26 27 26 24 23 22
1 2 4 5 6 8 9 11 12 13 15 16 17 17 17 16 16 17 17 17 17 19 20 21 22 22 22 22 22 22 23 23 24 26 28 29 29 30 32 35 37 39 37 33 30 34 41 44 45 49 50 48 48 47 44 42 41 40 38 37 37 36 34 31 28 26 24 23 24 25 27 26 24 23
2 4 4 6 7 9 10 11 13 15 16 17 18 19 19 19 19 19 19 19 19 20 21 21 22 22 22 23 22 22 22 22 23 23 25 27 27 29 31 34 38 40 36 31 31 37 41 43 44 48 51 52 49 44 43 45 44 42 41 40 38 37 35 32 29 26 25 24 24 25 26 27 27 25
4 5 6 6 8 9 11 12 13 15 17 18 18 20 21 21 21 21 22 23 24 24 24 24 24 24 23 23 23 22 22 21 21 21 23 25 27 29 31 33 35 39 38 34 32 35 39 42 43 43 45 51 52 46 44 46 46 44 44 43 40 38 36 35 32 28 26 25 25 26 26 27 28 27
5 6 7 8 9 10 12 13 14 15 17 18 18 19 21 22 23 23 24 25 26 27 27 26 26 25 24 23 23 22 22 21 21 21 22 24 26 28 31 32 32 35 38 37 33 33 37 40 42 39 37 40 49 51 48 45 45 45 44 44 43 41 38 38 36 32 28 26 26 26 27 27 27 27
6 7 8 9 10 11 13 14 15 16 17 17 18 19 20 21 23 24 25 25 26 27 27 27 27 26 25 24 23 23 23 22 22 22 23 24 25 26 29 32 33 35 37 36 32 32 36 38 39 39 37 37 43 50 52 49 44 42 42 44 45 43 40 38 39 35 30 27 27 27 27 26 26 26
7 8 9 10 11 12 13 14 15 16 17 17 18 19 20 21 23 24 25 26 26 26 26 26 27 26 25 25 25 24 24 24 24 24 25 25 25 26 27 29 32 35 37 36 32 30 33 35 35 35 38 41 43 47 52 53 48 43 42 43 43 43 41 39 38 37 33 30 29 29 28 27 26 26
10 10 11 12 12 13 14 14 15 16 17 18 19 20 21 22 23 24 25 25 26 26 26 26 26 26 26 26 26 26 26 26 26 26 27 27 27 27 28 29 30 33 35 36 34 30 28 31 33 32 35 40 45 47 50 52 51 48 47 45 42 41 41 39 38 37 35 32 31 30 29 29 27 26
11 11 12 13 13 14 14 14 15 16 17 18 20 21 22 23 24 24 25 26 26 26 26 26 26 26 26 26 27 27 27 27 28 28 28 28 28 29 30 31 31 32 34 35 35 33 30 31 35 35 35 38 42 46 48 51 52 51 49 48 46 41 39 40 40 37 34 32 31 30 30 29 27 26
11 12 13 14 14 14 14 15 15 16 17 19 20 21 22 23 24 24 25 25 26 26 25 25 25 25 25 25 26 26 27 28 28 29 29 29 29 30 31 32 32 32 34 35 35 34 33 34 37 39 40 40 40 43 47 50 52 51 48 48 49 45 40 39 39 37 33 32 32 32 31 30 28 27
11 12 13 14 15 15 15 16 17 18 19 19 20 21 22 23 23 24 24 24 25 25 25 25 25 25 25 25 25 26 27 28 28 29 30 30 30 31 32 33 34 34 34 34 35 35 35 36 38 39 42 44 43 45 47 49 51 51 47 45 47 48 42 38 39 38 34 33 34 35 34 32 28 27
12 13 14 15 16 16 17 18 19 20 20 21 21 22 23 23 23 23 24 24 24 24 25 25 25 25 25 25 26 26 27 28 28 29 30 31 31 32 33 34 36 36 35 34 34 35 36 37 38 38 41 44 46 47 47 47 49 51 47 42 42 45 43 39 39 37 33 33 37 36 35 33 29 27
13 14 15 16 17 17 18 19 20 20 21 21 22 23 23 23 24 23 23 23 23 23 24 24 24 24 24 25 25 26 26 27 28 29 30 31 32 33 34 35 37 38 38 38 37 37 37 37 38 39 40 43 46 48 47 47 47 47 45 41 39 40 39 36 35 34 32 34 37 36 34 33 31 28
14 15 16 17 18 18 19 20 20 21 21 22 22 22 23 23 24 24 24 24 24 23 24 24 24 24 24 25 25 25 26 27 27 28 29 30 31 32 33 35 36 37 39 40 40 40 40 39 39 40 41 42 44 45 45 46 45 42 39 38 38 38 37 35 33 33 33 34 36 35 34 33 31 28
16 16 17 18 18 19 20 21 21 22 22 22 22 23 23 23 23 24 24 24 24 23 23 24 24 24 24 25 25 25 26 27 27 28 28 29 30 32 33 34 35 36 38 40 41 41 41 42 43 44 45 45 45 44 41 40 39 37 34 34 36 37 37 35 33 33 33 34 35 35 34 33 31 28
17 17 18 18 19 19 20 21 21 22 22 23 23 23 23 23 23 23 24 24 24 23 23 24 23 23 24 24 25 25 26 27 28 28 28 29 30 31 32 33 34 36 37 38 40 40 41 43 45 47 49 49 49 49 44 37 33 34 35 35 36 37 38 36 35 35 36 34 35 36 35 33 31 28
17 17 18 18 18 19 19 20 20 21 21 22 22 23 23 23 23 23 23 24 24 24 24 24 24 24 24 25 25 26 26 27 28 29 29 29 30 31 32 33 34 35 36 36 38 39 39 41 42 43 46 47 46 49 50 45 38 36 38 40 41 41 40 38 37 38 38 35 35 36 36 33 32 29
16 17 17 17 18 18 19 19 20 20 21 21 22 22 23 23 23 23 23 23 23 24 24 24 25 25 25 25 26 27 27 28 29 29 29 30 31 32 33 34 34 35 36 36 37 37 38 40 40 39 39 40 40 44 52 53 46 41 40 42 44 43 40 39 40 40 39 36 35 36 35 33 32 29
15 15 16 16 17 18 18 19 20 21 21 22 23 23 23 24 23 23 23 23 24 24 24 25 25 25 26 26 27 28 29 29 29 30 30 30 31 32 33 34 35 36 37 37 37 37 37 39 40 37 35 36 37 42 50 54 52 48 43 42 43 43 40 39 41 41 39 36 35 35 34 33 33 30
15 15 15 16 17 18 19 19 20 21 22 22 23 24 24 25 24 24 25 24 25 25 25 26 26 26 27 27 28 29 30 30 31 31 31 31 32 33 34 35 36 37 38 38 38 37 37 39 40 39 37 37 39 42 45 49 53 53 48 43 40 40 39 38 39 39 38 34 33 34 34 33 32 31
14 15 16 17 17 18 19 20 20 21 22 23 23 24 24 25 25 25 26 26 26 26 26 27 27 28 28 28 28 29 31 31 31 32 32 32 33 33 34 35 36 36 38 39 39 38 38 39 40 40 40 42 43 44 44 46 49 51 49 44 39 37 38 38 37 37 36 33 31 33 34 34 33 32
14 15 16 17 17 18 19 20 21 21 22 23 24 24 24 25 25 26 26 26 26 27 27 28 28 28 29 29 29 30 32 32 32 32 32 32 33 34 34 35 35 35 37 39 40 40 39 40 41 42 42 44 46 45 44 46 48 49 48 45 40 38 37 36 34 34 34 32 33 35 36 34 33 32
15 15 16 17 18 19 20 20 21 22 22 23 24 24 25 25 25 25 26 26 26 27 28 28 29 29 29 29 30 31 32 33 33 33 33 33 34 35 35 35 36 37 38 40 41 41 40 41 44 44 44 46 46 42 43 47 49 49 49 46 43 42 39 35 32 31 30 29 32 36 38 34 30 29
15 16 16 17 18 18 19 20 21 22 22 23 23 24 25 25 25 25 26 26 27 27 28 29 29 29 30 30 30 31 32 33 34 34 34 34 34 35 36 36 37 38 39 40 42 42 42 44 46 45 46 48 45 41 43 48 49 49 49 48 46 46 43 38 34 30 27 25 26 31 36 37 33 30
15 15 15 16 16 17 18 19 20 20 21 22 23 24 24 25 26 26 26 27 27 28 29 29 30 30 30 31 31 32 32 33 34 35 35 35 35 35 37 37 38 39 40 41 42 43 44 46 46 46 47 49 45 42 44 47 48 49 49 48 47 47 44 39 34 28 24 23 21 24 31 36 35 33
14 14 14 15 15 16 17 18 19 19 20 22 23 24 25 25 26 27 26 27 28 29 30 30 31 31 31 32 32 33 34 34 34 35 35 35 36 36 37 38 39 40 41 41 43 44 46 48 47 47 48 49 47 45 45 46 47 48 49 49 47 45 42 39 33 28 25 25 23 24 28 31 32 31
Wind_Direction
253 252 256 261 263 263 263 267 271 268 268 272 273 271 268 271 281 288 287 283 276 270 271 272 268 267 270 275 280 288 296 302 307 310 313 316 319 321 321 323 325 325 325 326 326 325 323 319 315 311 306 302 299 298 299 301 302 303 305 305 303 299 297 296 295 296 296 294 293 293 295 298 300 301
245 245 246 248 248 248 249 253 263 267 267 272 275 275 266 257 258 265 275 280 279 276 273 271 272 276 281 288 295 301 305 308 311 312 315 318 319 320 321 323 324 325 326 327 328 327 326 326 323 318 313 307 303 301 300 300 301 301 303 304 304 303 301 297 295 294 293 293 293 292 294 297 298 300
234 234 233 234 238 241 242 242 244 247 252 259 270 282 280 271 268 268 273 279 282 286 286 284 286 290 294 297 298 299 302 306 307 309 311 312 313 314 316 319 320 320 322 324 325 326 327 329 327 323 318 312 308 304 301 300 300 301 301 303 303 303 302 299 296 294 293 294 294 294 295 296 298 302
219 220 222 224 229 237 241 243 244 245 248 251 256 267 276 280 283 286 288 289 290 295 297 297 298 297 297 298 299 297 297 298 301 304 306 308 309 310 311 312 314 316 319 323 324 325 326 327 328 327 323 318 314 308 303 301 300 301 302 303 304 304 303 301 299 297 295 295 295 296 295 297 301 304
210 214 219 222 225 230 237 245 250 250 253 257 260 263 268 273 278 283 287 288 290 292 293 294 297 297 297 298 300 300 297 297 298 299 302 304 306 307 308 308 310 314 318 320 321 322 324 326 328 329 328 325 321 314 309 304 301 301 301 302 304 305 304 303 302 301 300 298 297 296 296 300 304 305
219 223 228 232 232 235 241 246 250 250 253 258 260 262 265 267 270 274 277 281 286 289 290 293 296 300 303 305 308 308 306 306 306 304 304 304 305 307 308 309 310 313 316 317 319 322 324 326 326 326 329 332 329 323 316 310 306 303 302 302 302 303 305 305 305 306 305 302 299 297 299 302 305 307
221 224 230 235 238 241 245 247 244 242 245 249 250 253 256 259 262 265 271 278 285 292 300 306 308 313 318 320 322 320 316 316 316 313 310 309 309 310 311 312 313 315 317 318 321 323 324 325 325 325 328 331 333 330 324 318 312 307 304 303 302 302 304 305 305 306 305 303 301 300 301 303 307 312
217 218 221 224 228 232 236 237 236 235 238 239 241 247 250 254 260 267 278 289 298 308 318 325 328 331 334 335 334 329 324 324 325 323 319 317 317 316 316 318 320 322 322 322 324 325 326 327 327 326 326 327 329 330 330 327 321 313 307 305 304 303 303 304 304 304 304 304 303 303 303 306 310 315
202 202 202 203 205 207 208 210 212 216 222 228 235 248 261 278 300 313 320 325 330 334 337 341 345 345 344 345 346 340 335 336 336 333 329 329 328 326 326 329 331 330 329 328 328 328 328 328 326 325 325 325 325 327 329 331 330 322 313 308 307 307 306 306 305 304 303 303 304 304 304 307 313 316
167 165 164 162 157 153 154 155 155 151 145 139 130 100 61 32 21 8 359 357 354 353 354 353 355 356 353 354 356 353 347 346 345 341 338 341 342 339 337 339 341 338 336 335 334 333 332 329 326 325 325 324 323 324 327 331 333 328 321 312 309 309 309 308 307 306 303 304 306 306 304 307 314 317
139 137 133 129 124 120 119 117 113 110 106 98 89 79 65 49 38 25 15 12 7 6 6 2 3 6 3 360 1 0 354 353 354 350 346 347 349 348 346 347 346 343 339 337 336 337 335 330 328 328 327 327 325 325 328 331 331 330 326 318 313 312 312 311 310 309 306 305 307 306 305 309 315 317
131 128 123 119 115 113 111 107 101 96 90 82 74 68 60 51 43 34 25 22 20 18 14 9 9 11 9 5 4 3 358 356 359 357 352 350 349 348 349 353 352 347 341 338 339 342 339 332 332 332 331 332 331 328 330 331 330 331 329 323 317 314 314 314 313 313 311 307 305 305 306 311 315 318
128 125 120 114 112 109 105 101 96 89 80 71 64 58 50 44 38 31 25 22 20 17 13 8 7 7 8 5 2 2 0 358 357 354 351 350 349 346 346 353 359 351 342 339 341 345 343 337 336 337 336 337 337 333 332 333 331 331 330 326 320 316 316 317 316 315 314 310 305 303 306 311 314 317
125 122 118 115 112 106 98 93 86 77 67 58 50 42 35 30 24 18 14 12 9 6 5 4 1 360 2 4 1 358 357 354 352 350 349 347 347 347 344 348 358 355 344 340 342 346 348 342 339 342 343 341 339 335 334 333 332 332 331 328 323 320 321 323 320 317 314 312 308 304 305 310 314 314
123 120 117 114 109 101 92 85 75 64 53 43 36 29 21 15 9 5 3 1 359 358 359 2 360 356 357 0 359 354 351 350 349 347 348 347 346 347 344 344 351 354 347 343 342 346 352 349 342 343 344 341 339 337 335 334 332 332 333 331 327 325 326 327 325 321 315 311 308 307 307 310 312 311
122 120 117 112 104 95 89 84 74 56 41 31 23 16 9 4 359 357 355 354 354 354 355 358 359 354 353 356 356 352 348 347 346 344 346 347 344 344 343 340 344 350 349 345 343 345 353 352 343 342 345 342 339 338 336 335 332 331 334 333 329 325 324 325 327 327 322 317 314 313 311 310 311 310
123 120 115 107 94 84 75 68 59 39 22 12 4 0 358 356 354 352 351 350 352 354 354 354 356 354 350 350 352 351 347 345 344 343 343 346 344 341 341 339 341 346 349 346 341 340 347 349 342 340 344 342 338 337 336 336 334 332 334 334 330 327 324 323 326 329 331 329 326 322 318 315 312 308
121 115 105 80 63 57 30 9 5 360 355 351 350 351 350 349 349 347 347 349 349 351 351 349 350 350 347 345 346 347 346 345 344 342 342 345 344 339 339 339 339 344 348 346 338 333 339 346 339 336 340 339 336 337 338 337 335 333 334 333 330 329 326 322 321 325 332 334 332 328 324 318 312 306
112 93 32 351 357 358 343 340 342 340 339 339 341 343 343 344 345 342 343 346 344 345 346 344 343 344 343 342 343 344 345 344 343 342 341 344 342 338 337 337 338 341 343 343 336 328 333 339 334 332 337 337 335 337 339 338 337 337 335 331 328 328 328 323 319 320 327 331 331 330 325 317 311 310
88 356 334 332 338 337 333 334 335 334 334 333 333 335 336 338 340 337 338 342 341 338 339 338 337 339 338 338 340 342 343 342 342 340 340 342 341 337 335 334 335 337 337 341 339 326 327 333 332 330 335 334 332 335 338 339 339 337 333 328 326 326 327 326 320 316 320 327 329 329 325 316 309 310
329 318 322 325 329 329 329 331 331 331 332 331 330 330 331 332 332 330 330 334 334 332 332 333 333 333 333 333 336 339 339 340 342 340 338 340 339 335 332 330 331 332 334 339 337 324 324 332 332 330 331 330 329 333 335 336 336 333 330 327 325 324 326 327 323 315 315 321 323 325 324 320 313 308
305 309 314 319 322 322 324 327 328 328 329 329 328 328 328 329 328 325 324 325 324 324 327 329 329 329 330 331 333 334 334 337 340 338 336 337 335 332 330 328 328 329 331 337 336 327 327 332 331 329 329 327 327 330 331 331 331 331 330 328 326 325 325 327 326 319 312 313 316 318 320 321 319 311
310 311 313 316 318 319 322 324 326 327 327 328 328 327 327 327 327 325 325 324 322 322 324 325 325 326 328 328 329 330 331 334 336 335 334 335 333 330 329 329 328 326 328 336 338 329 327 328 328 330 330 325 323 325 327 327 329 330 330 329 327 326 325 324 325 322 314 310 311 313 314 316 318 314
320 319 318 320 321 320 320 323 325 326 325 325 326 326 326 327 326 325 325 325 323 323 323 323 323 324 324 324 324 325 327 328 329 330 333 334 333 330 329 329 328 324 327 336 338 327 324 326 326 329 329 321 317 320 322 324 326 328 328 327 326 326 324 322 322 322 317 312 310 310 312 314 314 312
328 323 323 324 323 320 321 323 324 324 323 323 324 325 325 325 324 323 323 323 322 321 321 321 321 321 321 321 322 323 324 325 327 328 331 332 331 330 330 330 329 326 328 335 335 327 325 326 325 326 326 319 314 316 318 320 323 325 326 325 324 324 322 320 320 321 318 314 310 308 308 310 310 308
329 324 323 323 320 319 321 323 323 322 322 322 322 323 323 322 321 320 320 320 319 318 319 318 318 319 319 319 320 322 323 325 327 329 329 329 328 328 329 331 330 328 329 334 337 333 327 326 326 326 325 321 317 316 316 317 319 322 323 322 320 319 319 318 318 318 318 314 310 308 305 305 306 306
327 323 322 319 317 318 320 321 321 319 319 320 320 320 320 318 318 317 316 316 316 316 316 316 316 318 319 319 321 323 324 325 327 327 326 325 325 325 326 328 329 329 331 334 338 338 333 329 328 326 322 318 315 313 313 315 316 318 319 320 319 317 316 316 314 315 316 314 310 306 302 299 302 305
327 323 320 317 315 317 318 317 317 316 316 317 316 316 316 315 314 314 313 313 313 313 313 313 314 316 318 319 322 323 324 325 325 325 323 324 325 324 324 325 327 329 332 334 338 341 338 331 327 324 319 314 311 310 311 312 314 317 318 318 318 317 315 313 311 312 313 311 308 305 299 296 300 304
323 319 316 314 314 315 315 314 312 311 312 312 312 313 313 312 311 311 310 310 309 309 310 310 311 313 315 317 319 320 321 322 322 322 321 321 323 323 322 322 323 328 333 336 338 339 335 329 327 326 323 320 315 312 312 312 313 315 316 316 316 316 314 311 308 309 310 307 305 303 298 295 296 299
315 313 311 310 310 311 311 311 310 309 310 310 310 311 310 309 309 309 308 308 308 308 308 308 309 311 312 314 316 317 318 319 320 321 321 321 322 323 322 321 321 325 331 336 337 336 332 330 330 327 324 322 317 314 313 313 311 312 314 316 315 313 313 311 307 306 307 304 301 299 296 294 293 293
306 306 304 305 306 308 309 309 308 308 309 309 309 309 309 308 308 308 308 309 309 308 308 307 308 310 311 312 314 315 316 318 319 321 322 323 323 324 324 323 322 324 328 331 333 334 333 332 331 327 323 319 316 314 314 312 310 310 313 316 314 311 312 313 307 304 305 304 301 297 293 290 290 291
302 300 300 302 303 304 304 304 304 305 306 307 307 308 308 308 309 309 309 309 309 308 307 306 306 308 309 310 311 313 315 317 320 322 324 325 325 325 326 326 326 326 327 328 330 332 333 332 330 326 322 317 313 313 313 311 310 311 313 315 315 312 313 314 309 306 308 306 302 299 293 289 288 289
296 295 296 298 298 299 300 300 301 302 303 304 305 306 307 307 308 309 309 309 309 309 308 307 307 307 308 309 311 313 315 318 320 323 325 326 326 327 327 326 326 327 327 327 329 332 332 332 329 325 321 317 313 313 313 312 311 314 316 316 314 312 313 313 311 311 313 310 304 300 294 288 285 286
294 294 295 296 296 298 299 299 301 302 302 303 304 304 306 307 308 309 310 310 310 310 309 309 309 309 309 310 312 314 316 318 321 324 326 327 327 327 326 325 325 326 327 327 329 331 332 331 329 325 322 318 313 311 313 314 315 315 315 313 310 309 309 310 310 311 312 311 307 303 294 286 283 283
294 295 296 297 297 299 300 301 303 303 304 304 305 306 307 309 310 311 311 312 312 311 311 311 311 312 312 313 314 316 318 319 320 322 325 327 328 327 327 327 325 325 326 326 327 331 333 332 330 328 324 322 318 313 311 313 315 312 309 306 304 305 305 305 304 304 305 305 305 303 298 290 286 284
295 296 297 298 299 300 301 302 303 305 306 307 307 308 309 310 312 312 313 313 314 314 313 313 313 314 315 316 316 318 319 319 319 321 324 326 327 327 327 327 327 326 326 326 327 331 333 332 333 332 329 327 324 317 312 312 312 309 306 305 305 306 307 305 302 299 297 296 297 299 298 295 291 289
296 298 300 301 303 304 305 306 307 309 310 310 311 312 311 312 313 314 314 315 314 314 314 315 315 316 316 317 317 318 318 319 320 322 324 326 327 328 327 327 327 326 326 325 327 331 333 332 334 335 331 327 323 316 312 313 311 306 305 307 307 307 308 305 301 298 294 290 290 293 296 297 295 293
299 302 304 305 307 308 309 310 311 312 312 312 312 313 312 313 314 315 315 315 315 315 316 316 316 316 316 318 318 317 317 319 320 321 324 325 327 328 328 327 327 327 326 325 325 329 332 333 333 333 329 322 316 311 312 313 311 307 307 309 307 305 305 304 303 302 297 290 286 288 292 294 293 292
302 304 305 307 308 308 309 310 310 310 311 311 311 312 312 312 313 314 315 316 316 316 316 316 316 317 317 318 318 317 317 318 319 321 323 325 326 327 327 327 328 328 326 324 323 325 330 332 332 330 326 319 314 311 310 309 309 308 308 307 306 306 306 306 307 305 300 293 289 288 289 288 288 288
303 304 305 306 307 307 307 308 308 308 309 309 310 311 311 312 314 315 316 317 317 317 317 316 316 317 316 317 318 317 315 316 318 320 322 324 325 326 326 326 327 328 327 325 323 324 327 330 330 328 326 322 319 317 313 309 309 310 308 305 306 307 305 304 305 301 296 294 293 289 286 284 282 281
304 305 304 305 306 306 307 307 307 308 309 309 310 311 311 312 314 315 316 318 318 317 317 316 316 316 316 317 317 316 314 315 317 319 321 322 323 324 325 325 326 327 327 325 324 323 325 328 328 327 327 326 324 321 316 311 311 312 309 303 303 304 302 302 301 294 287 288 290 285 279 277 276 273
304 304 304 305 306 307 307 308 308 308 309 310 310 311 312 313 315 316 316 317 317 316 316 315 315 315 315 316 316 315 314 315 317 318 320 321 321 322 323 324 326 327 325 324 324 323 324 326 327 328 329 327 324 319 314 311 312 313 311 305 302 302 304 305 302 293 283 281 282 276 270 266 262 258
302 303 303 304 305 306 307 307 308 309 310 311 312 313 315 315 317 318 318 318 318 317 316 315 315 315 314 314 314 314 314 315 316 316 318 320 320 321 321 323 325 325 323 323 323 323 324 326 328 329 328 326 322 317 313 312 312 313 313 310 305 304 305 305 303 294 280 272 275 271 265 261 259 257
301 302 303 303 305 307 307 308 310 312 314 315 316 317 319 319 319 321 322 321 320 318 317 316 316 315 314 314 313 312 313 314 314 315 316 317 319 320 321 323 324 323 323 324 324 324 324 326 327 328 326 324 321 316 314 313 313 313 314 313 309 307 308 307 306 298 282 274 278 275 264 258 257 258
303 304 307 308 309 311 313 314 316 318 319 319 320 321 321 321 321 323 323 322 320 319 317 317 316 316 315 314 313 312 313 313 313 314 315 316 318 320 320 322 323 322 323 325 325 324 324 325 326 326 325 321 319 317 316 313 312 313 315 314 311 310 310 309 307 303 293 288 288 282 267 256 252 253